Wisconsin Dells, Wisconsin, United States (53965)
Lat: 43.63N, Lon: 89.77W
Wx Zone: WIZ057
Local Info
Past Weather Observations for Wednesday, November 19, 2014

NOTE: This archive is for the closest National Weather Service station to Wisconsin Dells. Information may differ from the station used for current weather conditions.

Click here for Long-term Archive

Time Weather Temperature Dewpoint Humidity Pressure Winds Precip Visibility
23:55
Partly Cloudy
19°F / -7°C 12°F / -11°C 73% 29.92 in
(1013 mb)
SSW 9.2 mph
(SSW 15 kph)
- 10SM
23:35
Mostly Cloudy
18°F / -8°C 12°F / -11°C 79% 29.92 in
(1013 mb)
SSW 8.1 mph
(SSW 13 kph)
- 10SM
23:15
Partly Cloudy
18°F / -8°C 12°F / -11°C 79% 29.92 in
(1013 mb)
SSW 8.1 mph
(SSW 13 kph)
- 10SM
22:55
Clear
18°F / -8°C 12°F / -11°C 79% 29.89 in
(1012 mb)
SSW 10.4 mph
(SSW 17 kph)
- 10SM
22:35
Clear
18°F / -8°C 12°F / -11°C 79% 29.89 in
(1012 mb)
SSW 11.5 mph
(SSW 19 kph)
- 10SM
22:15
Clear
18°F / -8°C 10°F / -12°C 73% 29.92 in
(1013 mb)
SSW 10.4 mph
(SSW 17 kph)
- 10SM
21:55
Clear
18°F / -8°C 10°F / -12°C 73% 29.92 in
(1013 mb)
SSW 11.5 mph
(SSW 19 kph)
- 10SM
21:35
Clear
19°F / -7°C 10°F / -12°C 68% 29.92 in
(1013 mb)
SSW 10.4 mph
(SSW 17 kph)
- 10SM
21:15
Clear
19°F / -7°C 10°F / -12°C 68% 29.92 in
(1013 mb)
SSW 9.2 mph
(SSW 15 kph)
- 10SM
20:55
Clear
19°F / -7°C 10°F / -12°C 68% 29.92 in
(1013 mb)
SSW 11.5 mph
(SSW 19 kph)
- 10SM
20:35
Clear
19°F / -7°C 10°F / -12°C 68% 29.89 in
(1012 mb)
SSW 11.5 mph
(SSW 19 kph)
- 10SM
20:15
Clear
19°F / -7°C 10°F / -12°C 68% 29.89 in
(1012 mb)
SSW 8.1 mph
(SSW 13 kph)
- 10SM
19:55
Clear
19°F / -7°C 10°F / -12°C 68% 29.89 in
(1012 mb)
W 10.4 mph
(W 17 kph)
- 10SM
19:35
Clear
19°F / -7°C 12°F / -11°C 73% 29.89 in
(1012 mb)
W 9.2 mph
(W 15 kph)
- 10SM
19:15
Clear
19°F / -7°C 10°F / -12°C 68% 29.89 in
(1012 mb)
W 10.4 mph
(W 17 kph)
- 10SM
18:55
Partly Cloudy
19°F / -7°C 12°F / -11°C 73% 29.89 in
(1012 mb)
SSW 10.4 mph
(SSW 17 kph)
- 10SM
18:35
Mostly Cloudy
21°F / -6°C 12°F / -11°C 68% 29.89 in
(1012 mb)
W 12.7 mph
(W 20 kph)
- 10SM
18:15
Mostly Cloudy
19°F / -7°C 12°F / -11°C 73% 29.89 in
(1012 mb)
W 11.5 mph
(W 19 kph)
- 10SM
17:55
Mostly Cloudy
21°F / -6°C 12°F / -11°C 68% 29.86 in
(1011 mb)
W 11.5 mph
(W 19 kph)
- 10SM
17:35
Overcast
21°F / -6°C 14°F / -10°C 74% 29.86 in
(1011 mb)
W 10.4 mph
(W 17 kph)
- 10SM
17:15
Overcast
21°F / -6°C 14°F / -10°C 74% 29.86 in
(1011 mb)
WNW 6.9 mph
(WNW 11 kph)
- 10SM
16:55
Overcast
21°F / -6°C 12°F / -11°C 68% 29.86 in
(1011 mb)
W 11.5 mph
(W 19 kph)
- 10SM
16:35
Overcast
21°F / -6°C 12°F / -11°C 68% 29.83 in
(1010 mb)
NW 12.7 mph
(NW 20 kph)
- 10SM
16:15
Overcast
Light Snow
21°F / -6°C 14°F / -10°C 74% 29.83 in
(1010 mb)
NW 9.2 mph
(NW 15 kph)
- 1 3/4SM
15:55
Overcast
21°F / -6°C 10°F / -12°C 63% 29.83 in
(1010 mb)
W 10.4 mph
(W 17 kph)
- 10SM
15:35
Mostly Cloudy
21°F / -6°C 9°F / -13°C 58% 29.8 in
(1009 mb)
NW 16.1 mph
(NW 26 kph)
- 10SM
15:15
Overcast
21°F / -6°C 10°F / -12°C 63% 29.8 in
(1009 mb)
NW 17.3 mph
(NW 28 kph)
- 10SM
14:55
Overcast
21°F / -6°C 9°F / -13°C 58% 29.8 in
(1009 mb)
WNW 12.7 mph
(WNW 20 kph)
- 10SM
14:35
Overcast
Light Snow
21°F / -6°C 12°F / -11°C 68% 29.77 in
(1008 mb)
W 11.5 mph
(W 19 kph)
- 10SM
14:15
Overcast
Light Snow
21°F / -6°C 12°F / -11°C 68% 29.77 in
(1008 mb)
WNW 16.1 mph
(WNW 26 kph)
- 10SM
13:55
Overcast
Light Snow
23°F / -5°C 12°F / -11°C 63% 29.77 in
(1008 mb)
WNW 11.5 mph
(WNW 19 kph)
- 10SM
13:35
Overcast
23°F / -5°C 12°F / -11°C 63% 29.74 in
(1007 mb)
WNW 11.5 mph
(WNW 19 kph)
- 10SM
13:15
Overcast
Light Snow
23°F / -5°C 14°F / -10°C 68% 29.74 in
(1007 mb)
WNW 16.1 mph
(WNW 26 kph)
- 10SM
12:55
Overcast
Light Snow
23°F / -5°C 16°F / -9°C 74% 29.74 in
(1007 mb)
WNW 13.8 mph
(WNW 22 kph)
- 2 1/2SM
12:35
Overcast
Light Snow
23°F / -5°C 18°F / -8°C 80% 29.74 in
(1007 mb)
WNW 12.7 mph
(WNW 20 kph)
- 1 3/4SM
12:15
Mostly Cloudy
Light Snow
25°F / -4°C 14°F / -10°C 63% 29.74 in
(1007 mb)
WNW 16.1 mph
(WNW 26 kph)
- 10SM
11:55
Overcast
27°F / -3°C 14°F / -10°C 59% 29.74 in
(1007 mb)
WNW 13.8 mph
(WNW 22 kph)
- 10SM
11:35
Overcast
25°F / -4°C 12°F / -11°C 59% 29.74 in
(1007 mb)
WNW 18.4 mph
(WNW 30 kph)
- 10SM
11:15
Overcast
25°F / -4°C 14°F / -10°C 63% 29.74 in
(1007 mb)
NW 17.3 mph
(NW 28 kph)
- 10SM
10:55
Overcast
25°F / -4°C 16°F / -9°C 69% 29.74 in
(1007 mb)
WNW 16.1 mph
(WNW 26 kph)
- 10SM
10:35
Overcast
23°F / -5°C 16°F / -9°C 74% 29.74 in
(1007 mb)
W 10.4 mph
(W 17 kph)
- 10SM
10:15
Overcast
23°F / -5°C 16°F / -9°C 74% 29.74 in
(1007 mb)
NW 16.1 mph
(NW 26 kph)
- 10SM
09:55
Overcast
23°F / -5°C 16°F / -9°C 74% 29.74 in
(1007 mb)
W 11.5 mph
(W 19 kph)
- 10SM
09:35
Overcast
21°F / -6°C 16°F / -9°C 80% 29.71 in
(1006 mb)
W 11.5 mph
(W 19 kph)
- 10SM
09:15
Overcast
21°F / -6°C 16°F / -9°C 80% 29.71 in
(1006 mb)
W 12.7 mph
(W 20 kph)
- 10SM
08:55
Overcast
21°F / -6°C 16°F / -9°C 80% 29.71 in
(1006 mb)
W 9.2 mph
(W 15 kph)
- 10SM
08:35
Overcast
19°F / -7°C 14°F / -10°C 79% 29.71 in
(1006 mb)
SSW 11.5 mph
(SSW 19 kph)
- 10SM
08:15
Overcast
19°F / -7°C 14°F / -10°C 79% 29.71 in
(1006 mb)
SSW 8.1 mph
(SSW 13 kph)
- 10SM
07:55
Overcast
18°F / -8°C 14°F / -10°C 86% 29.71 in
(1006 mb)
SSW 5.8 mph
(SSW 9 kph)
- 10SM
07:35
Overcast
Light Snow
18°F / -8°C 12°F / -11°C 79% 29.71 in
(1006 mb)
SSW 8.1 mph
(SSW 13 kph)
- 10SM
07:15
Overcast
18°F / -8°C 12°F / -11°C 79% 29.71 in
(1006 mb)
SSW 6.9 mph
(SSW 11 kph)
- 10SM
06:55
Overcast
18°F / -8°C 12°F / -11°C 79% 29.71 in
(1006 mb)
SW 6.9 mph
(SW 11 kph)
- 10SM
06:35
Overcast
Light Snow
18°F / -8°C 12°F / -11°C 79% 29.71 in
(1006 mb)
SW 6.9 mph
(SW 11 kph)
- 7SM
06:15
Overcast
Light Snow
18°F / -8°C 12°F / -11°C 79% 29.71 in
(1006 mb)
SW 5.8 mph
(SW 9 kph)
- 1 3/4SM
05:55
Overcast
Light Snow
18°F / -8°C 12°F / -11°C 79% 29.71 in
(1006 mb)
SW 4.6 mph
(SW 7 kph)
- 1 1/4SM
05:35
Overcast
Light Snow
18°F / -8°C 12°F / -11°C 79% 29.71 in
(1006 mb)
SSE 5.8 mph
(SSE 9 kph)
- 1 1/2SM
05:15
Overcast
Light Snow
18°F / -8°C 10°F / -12°C 73% 29.71 in
(1006 mb)
S 6.9 mph
(S 11 kph)
- 3SM
04:55
Overcast
18°F / -8°C 10°F / -12°C 73% 29.71 in
(1006 mb)
S 9.2 mph
(S 15 kph)
- 10SM
04:35
Overcast
18°F / -8°C 10°F / -12°C 73% 29.74 in
(1007 mb)
S 10.4 mph
(S 17 kph)
- 10SM
04:15
Overcast
18°F / -8°C 10°F / -12°C 73% 29.74 in
(1007 mb)
S 6.9 mph
(S 11 kph)
- 10SM
03:55
Overcast
18°F / -8°C 10°F / -12°C 73% 29.74 in
(1007 mb)
S 4.6 mph
(S 7 kph)
- 10SM
03:35
Mostly Cloudy
18°F / -8°C 10°F / -12°C 73% 29.74 in
(1007 mb)
S 10.4 mph
(S 17 kph)
- 10SM
03:15
Mostly Cloudy
18°F / -8°C 10°F / -12°C 73% 29.77 in
(1008 mb)
S 10.4 mph
(S 17 kph)
- 10SM
02:55
Overcast
18°F / -8°C 10°F / -12°C 73% 29.77 in
(1008 mb)
S 10.4 mph
(S 17 kph)
- 10SM
02:35
Overcast
18°F / -8°C 10°F / -12°C 73% 29.77 in
(1008 mb)
SSE 11.5 mph
(SSE 19 kph)
- 10SM
02:15
Mostly Cloudy
16°F / -9°C 10°F / -12°C 79% 29.8 in
(1009 mb)
S 12.7 mph
(S 20 kph)
- 10SM
01:55
Partly Cloudy
16°F / -9°C 10°F / -12°C 79% 29.83 in
(1010 mb)
S 13.8 mph
(S 22 kph)
- 10SM
01:35
Mostly Cloudy
16°F / -9°C 10°F / -12°C 79% 29.83 in
(1010 mb)
S 13.8 mph
(S 22 kph)
- 10SM
01:15
Overcast
16°F / -9°C 10°F / -12°C 79% 29.86 in
(1011 mb)
S 13.8 mph
(S 22 kph)
- 10SM
00:55
Overcast
16°F / -9°C 9°F / -13°C 73% 29.89 in
(1012 mb)
S 10.4 mph
(S 17 kph)
- 10SM
00:35
Overcast
16°F / -9°C 9°F / -13°C 73% 29.89 in
(1012 mb)
S 9.2 mph
(S 15 kph)
- 10SM
00:15
Overcast
16°F / -9°C 9°F / -13°C 73% 29.89 in
(1012 mb)
S 9.2 mph
(S 15 kph)
- 10SM
Time Weather Temperature Dewpoint Humidity Pressure Winds Precip Visibility


Weather for websites

WeatherForYou.com, LLC is not responsible for any damages or problems caused by this service. Current weather conditions are obtained from the closest station including government and personal stations which may have varying degrees of accuracy. Weather forecasts are derived from the NOAA NDFD. Like all things, this site belongs to Jesus Christ... He just trusts me to maintain it. If you have any questions or comments email webmaster@weatherforyou.com

Copyright © 2014, WeatherForYou.com LLC. All rights reserved.